Printer-friendly version

IAU Minor Planet Center

Minor Planet Center

MPEC 2007-V42 : 2007 VF8

The following Minor Planet Electronic Circular may be linked-to from your own Web pages, but must not otherwise be redistributed electronically.


Read MPEC 2007-V41 Read MPEC 2007-V43


M.P.E.C. 2007-V42                                Issued 2007 Nov. 5, 22:17 UT

     The Minor Planet Electronic Circulars contain information on unusual
         minor planets and routine data on comets.  They are published
   on behalf of Commission 20 of the International Astronomical Union by the
          Minor Planet Center, Smithsonian Astrophysical Observatory,
                          Cambridge, MA 02138, U.S.A.

             Prepared using the Tamkin Foundation Computer Network

                              MPC@CFA.HARVARD.EDU
          URL http://www.cfa.harvard.edu/iau/mpc.html  ISSN 1523-6714

                                   2007 VF8

Observations:
     K07V08F* C2007 11 05.19895 00 31 11.96 -17 26 56.6          18.4 V EV042703
     K07V08F  C2007 11 05.20322 00 31 07.06 -17 25 30.7          18.3 V EV042703
     K07V08F  C2007 11 05.20751 00 31 02.10 -17 24 05.8          18.3 V EV042703
     K07V08F  C2007 11 05.21179 00 30 57.31 -17 22 42.7          18.6 V EV042703
     K07V08F  C2007 11 05.25948 00 30 02.60 -17 07 02.3                 EV042703
     K07V08F  C2007 11 05.26031 00 30 01.67 -17 06 44.6                 EV042703
     K07V08F  C2007 11 05.26072 00 30 01.25 -17 06 37.1          18.5 V EV042703
     K07V08F  C2007 11 05.28173 00 29 37.17 -16 59 39.4          18.8 V EV042703
     K07V08F  C2007 11 05.28214 00 29 36.67 -16 59 31.7          19.7 V EV042703
     K07V08F  C2007 11 05.28256 00 29 36.13 -16 59 21.0          18.5 V EV042703
     K07V08F  C2007 11 05.28297 00 29 35.70 -16 59 13.0          18.9 V EV042703
     K07V08F  C2007 11 05.89947 00 18 02.14 -13 25 40.2          18.5 R EV042J95
     K07V08F  C2007 11 05.90979 00 17 49.92 -13 21 55.1          18.7 R EV042J95
     K07V08F  C2007 11 05.91392 00 17 45.00 -13 20 24.8          18.7 R EV042J95
     K07V08F  C2007 11 05.91704 00 17 41.21 -13 19 16.0          18.8 R EV042J95

Observer details:
703 Catalina Sky Survey.  Observer R. A. Kowalski.  Measurers E. C. Beshore,
    A. Boattini, G. J. Garradd, A. R. Gibbs, A. D. Grauer, R. E. Hill,
    R. A. Kowalski, S. M. Larson, R. H. McNaught.  0.68-m Schmidt + CCD.
J95 Great Shefford.  Observer P. Birtwhistle.  0.40-m f/6.0 Schmidt-Cassegrain
    + CCD.

Orbital elements:
2007 VF8                                                 Earth MOID = 0.0396 AU
Epoch 2007 Oct. 27.0 TT = JDT 2454400.5                 MPC
M 341.71602              (2000.0)            P               Q
n   0.42619392     Peri.   37.17748     +0.24078219     -0.91198282
a   1.7487641      Node    42.01703     +0.72765712     -0.05683476
e   0.4458189      Incl.   29.74883     +0.64229203     +0.40627226
P   2.31           H   22.7           G   0.15           U   9
Residuals in seconds of arc
071105 703  0.1+  1.9-    071105 703  0.1-  0.3+    071105 703  0.2-  1.0+
071105 703  0.1-  0.4+    071105 703  0.6+  0.3-    071105 J95  0.4-  0.3-
071105 703  0.9-  1.1+    071105 703  0.5+  0.6-    071105 J95  0.5+  0.3-
071105 703  0.7+  0.2+    071105 703  0.1+  1.1-    071105 J95  0.4+  0.2-
071105 703  0.4-  0.9-    071105 703  0.8-  1.2+    071105 J95  0.7-  0.5+

Ephemeris:
2007 VF8                 a,e,i = 1.75, 0.45, 30                  q = 0.9691
Date    TT    R. A. (2000) Decl.     Delta      r     Elong.  Phase     V
2007 11 06    00 16.11   -12 47.3    0.0690   1.040   133.9    43.4    18.7
2007 11 07    23 56.12   -06 15.5    0.0655   1.036   132.3    45.0    18.6
2007 11 08    23 35.03   +00 53.8    0.0635   1.032   129.5    47.8    18.6
2007 11 09    23 13.14   +08 19.3    0.0631   1.029   125.5    51.6    18.7
2007 11 10    22 50.83   +15 34.6    0.0644   1.025   120.8    56.1    18.8
2007 11 11    22 28.49   +22 15.7    0.0672   1.021   115.8    60.8    19.1
2007 11 12    22 06.56   +28 07.4    0.0713   1.018   111.1    65.2    19.3
2007 11 13    21 45.38   +33 04.2    0.0765   1.014   106.7    69.2    19.6
2007 11 14    21 25.25   +37 08.5    0.0827   1.011   102.8    72.6    19.9
2007 11 15    21 06.37   +40 26.4    0.0895   1.008    99.5    75.5    20.1
2007 11 16    20 48.83   +43 05.5    0.0969   1.005    96.6    77.9    20.4
2007 11 17    20 32.68   +45 13.1    0.105    1.002    94.1    79.9    20.6
2007 11 18    20 17.88   +46 55.6    0.113    0.999    92.0    81.5    20.8
2007 11 19    20 04.37   +48 18.2    0.121    0.996    90.2    82.8    21.0
2007 11 20    19 52.04   +49 25.1    0.130    0.994    88.7    83.8    21.2
2007 11 21    19 40.82   +50 19.5    0.138    0.991    87.3    84.7    21.4
2007 11 22    19 30.58   +51 04.1    0.147    0.989    86.1    85.3    21.5
2007 11 23    19 21.23   +51 40.7    0.156    0.987    85.1    85.8    21.6
2007 11 24    19 12.68   +52 10.9    0.165    0.984    84.2    86.2    21.8
2007 11 25    19 04.85   +52 35.9    0.174    0.983    83.4    86.5    21.9
2007 11 26    18 57.65   +52 56.6    0.183    0.981    82.7    86.6    22.0

Timothy B. Spahr             (C) Copyright 2007 MPC           M.P.E.C. 2007-V42

Read MPEC 2007-V41 Read MPEC 2007-V43


Our Web policy. Index to the CBAT/MPC/ICQ pages.


Valid HTML 4.01!